AirNav   Pilot Hours Calculator
 
 1233 users online  

00AL Epps Airpark
Harvest, Alabama, USA

GOING TO HARVEST?


FAA INFORMATION EFFECTIVE 01 DECEMBER 2022

Location

FAA Identifier: 00AL
Lat/Long: 34-51-53.3170N 086-46-12.9990W
34-51.888617N 086-46.216650W
34.8648103,-86.7702775
(estimated)
Elevation: 820 ft. / 250 m (estimated)
Variation: 00W (1985)
From city: 1 mile NW of HARVEST, AL
Time zone: UTC -6 (UTC -5 during Daylight Saving Time)
Zip code: 35749

Airport Operations

Airport use: Private use. Permission required prior to landing
Activation date: 10/1964
Control tower: no
ARTCC: MEMPHIS CENTER
FSS: ANNISTON FLIGHT SERVICE STATION
Attendance: UNATNDD
Wind indicator: yes
Segmented circle: no

Airport Communications

WX AWOS-3PT at MDQ (10 nm E): 120.000 (256-829-1242)
WX ASOS at HSV (14 nm S): 121.25 (256-772-8074)
WX ASOS at DCU (15 nm SW): 118.375 (256-350-4270)
WX AWOS-3 at FYM (15 nm NE): 135.275 (931-433-5916)

Nearby radio navigation aids

VOR radial/distance  VOR name  Freq  Var
RQZr299/7.8ROCKET VORTAC112.2002E

Airport Services

Airframe service: NONE
Powerplant service: NONE

Runway Information

Runway 1/19

Dimensions: 2100 x 90 ft. / 640 x 27 m
Surface: turf
RUNWAY 1  RUNWAY 19
Traffic pattern: leftleft

Airport Ownership and Management from official FAA records

Ownership: Privately-owned
Owner: GEORGE F. EPPS
410 PEPPERWOOD CIR SW, P.O. BOX 356
HUNTSVILLE, AL 35801-6499
Phone 256-837-2369
Manager: GEORGE F. EPPS
410 PEPPERWOOD CIR SW, P.O. BOX 356
HUNTSVILLE, AL 35801-6499
Phone 256-837-2369

Airport Operational Statistics

Aircraft based on the field: 7
Single engine airplanes: 7
    

Additional Remarks

FOR CD CTC HUNTSVILLE APCH AT 256-542-2070. WHEN APCH CLSD CTC MEMPHIS ARTCC AT 901-368-8453/8449.

Instrument Procedures

There are no published instrument procedures at 00AL.

Some nearby airports with instrument procedures:

KMDQ - Huntsville Executive Airport / Tom Sharp Jr Field (10 nm E)
KHUA - Redstone Army Airfield (12 nm S)
KHSV - Huntsville International Airport-Carl T Jones Field (14 nm S)
KDCU - Pryor Field Regional Airport (15 nm SW)
KFYM - Fayetteville Municipal Airport (15 nm NE)
 
Loc | Ops | Rwys | IFR | FBO | Links
Com | Nav | Svcs | Stats | Notes
Area around 00AL (Epps Airpark)
 
Road maps at: MapQuest Bing Google
 
Aerial photo
No photo
 
Sectional chart

 
Airport distance calculator
Flying to Epps Airpark? Find the distance to fly.

From to 00AL

Sunrise and sunset
Times for 09-Dec-2022
 Local
(UTC-6)
 Zulu
(UTC)
Morning civil twilight06:1612:16
Sunrise06:4412:44
Sunset16:3522:35
Evening civil twilight17:0323:03

Current date and time
Zulu (UTC)  10-Dec-2022 01:04:48
Local (UTC-6)  09-Dec-2022 19:04:48
 
METAR
KMDQ 
11nm E 
100055Z AUTO 33005KT 10SM SCT014 OVC020 16/15 A3014 RMK A02 T01650152
KHUA 
12nm S 
092058Z 28003KT 7SM BKN009 OVC022 18/17 A3004 RMK SLPNO RVRNO $
KHSV 
13nm S 
100053Z 29005KT 10SM OVC016 17/16 A3013 RMK AO2 SLP197 T01720161
KFYM 
15nm NE 
100055Z AUTO 36007KT 10SM BKN011 OVC017 15/15 A3015 RMK A01
KDCU 
16nm SW 
100053Z AUTO 30005KT 10SM BKN017 OVC043 16/15 A3013 RMK AO2 SLP199 T01610150
TAF
KHUA 
12nm S 
092000Z 0920/1102 VRB06KT 8000 BR BKN008 OVC020 QNH3001INS BECMG 1005/1006 VRB06KT 4000 BR OVC005 QNH3014INS BECMG 1013/1014 VRB06KT 8000 BR OVC008 QNH3017INS BECMG 1015/1016 VRB06KT 8000 BR BKN100 QNH3019INS BECMG 1021/1022 VRB06KT 8000 -SHRA BKN020 QNH3012INS TX20/0921Z TN13/1013Z LAST NO AMDS AFT 1000 NEXT 1212
KHSV 
13nm S 
092138Z 0922/1018 29006KT P6SM FEW014 OVC022 FM092300 VRB04KT P6SM BKN011 FM100700 VRB03KT 4SM BR BKN011
NOTAMs
Click for the latest NOTAMs
NOTAMs are issued by the DoD/FAA and will open in a separate window not controlled by AirNav.

 

 
 

Would you like to see your business listed on this page?

 If your business provides an interesting product or service to pilots, flight crews, aircraft, or users of the Epps Airpark, you should consider listing it here.  To start the listing process, click on the button below
 
Add a business
 

Other Pages about Epps Airpark

Update a link
 
Copyright © AirNav, LLC. All rights reserved. Privacy Policy  Contact